Regional Weather Roundup
Issued by NWS Cleveland, OH

Home | Current Version | Previous Version | Graphics & Text | Print | Product List | Glossary On
Versions: 1 2 3 4 5 6 7 8 9 10 11 12 13 14 15 16 17 18 19 20 21 22 23 24 25 26 27 28 29 30 31 32 33 34 35 36 37 38 39 40 41 42 43 44 45 46 47 48 49 50
000
ASUS41 KCLE 040602
RWRCLE
OHIO REGIONAL WEATHER ROUNDUP
NATIONAL WEATHER SERVICE CLEVELAND, OH
100 AM EST SUN DEC 04 2016

NOTE: "FAIR" INDICATES FEW OR NO CLOUDS BELOW 12,000 FEET WITH NO
SIGNIFICANT WEATHER AND/OR OBSTRUCTIONS TO VISIBILITY.

OHZ001>008-015>018-024>027-034-035-043-044-040700-
   NORTHWEST OHIO

CITY           SKY/WX    TMP DP  RH WIND       PRES   REMARKS
DEFIANCE       CLOUDY    35  27  72 S3        30.28F
FINDLAY        CLOUDY    36  23  59 CALM      30.28S
TOLEDO EXPRESS CLOUDY    34  28  79 CALM      30.28F
TOLEDO EXEC    CLOUDY    36  29  75 SW5       30.29S
LIMA           CLOUDY    32  28  85 E3        30.27S
$$

OHZ009>014-019>023-028>033-038-089-040700-
   NORTHEAST OHIO

CITY           SKY/WX    TMP DP  RH WIND       PRES   REMARKS
CLE-HOPKINS    CLOUDY    37  26  64 S5        30.31S
CLE-LAKEFRONT  CLOUDY    38  26  62 S7        30.29S
CUY CO. ARPT   NOT AVBL
LORAIN-ELYRIA  CLOUDY    35  27  72 CALM      30.30S
ASHTABULA      CLOUDY    35  32  88 CALM      30.28F
AKRON-CANTON   CLOUDY    35  24  64 NW3       30.28S
WOOSTER        CLOUDY    34  26  72 CALM      30.29S
MANSFIELD      CLOUDY    34  24  67 CALM      30.27S
YOUNGSTOWN     CLOUDY    35  27  72 W5        30.27R
$$

OHZ042-051>053-060>062-070>072-077>081-040700-
  SOUTHWEST OHIO

CITY           SKY/WX    TMP DP  RH WIND       PRES   REMARKS
CINC-COVINGTON CLOUDY    37  30  75 E5        30.25F
CINC-LUNKEN    CLOUDY    37  32  82 N3        30.29F
HAMILTON       CLOUDY    32  28  85 CALM      30.28F
DAYTON         CLOUDY    32  27  81 SE5       30.27S WCI  27
WRIGHT-PAT AFB MOCLDY    32  28  85 CALM      30.27S
DAYTON GENERAL CLOUDY    35  26  69 SE6       30.26F
WILMINGTON     CLOUDY    33  27  78 E3        30.27F
$$

OHZ036-037-039>041-045>050-054>059-063>069-073>076-082>088-040700-
  CENTRAL AND SOUTHEAST OHIO

CITY           SKY/WX    TMP DP  RH WIND       PRES   REMARKS
COLUMBUS       CLOUDY    36  28  73 SE3       30.29R
OSU AIRPORT    CLOUDY    35  28  75 SE3       30.28S
BOLTON FIELD   NOT AVBL
RICKENBACK AFB NOT AVBL
NEWARK         CLOUDY    34  29  82 CALM      30.29R
MARION         CLOUDY    33  26  75 CALM      30.29R
LANCASTER      CLOUDY    34  30  85 CALM      30.29S
ZANESVILLE     CLOUDY    35  28  75 CALM      30.29S
NEW PHILLY     CLOUDY    35  29  78 CALM      30.30
$$




USA.gov is the U.S. government's official web portal to all federal, state and local government web resources and services.